TimeNST,TemperatureF,Dew PointF,Humidity,Sea Level PressureIn,VisibilityMPH,Wind Direction,Wind SpeedMPH,Gust SpeedMPH,PrecipitationIn,Events,Conditions,WindDirDegrees,DateUTC
12:30 AM,40.5,39.4,96,29.84,-9999.0,SSW,20.7,26.5,N/A,,Unknown,210,2012-12-06 04:00:00
1:30 AM,40.5,39.4,96,29.81,-9999.0,SSW,15.0,-,N/A,,Unknown,200,2012-12-06 05:00:00
2:30 AM,40,38,91,29.79,,South,11.5,,,,,180,2012-12-06 06:00:00
2:30 AM,39.7,38.3,95,29.79,-9999.0,South,11.5,-,N/A,,Unknown,180,2012-12-06 06:00:00
3:30 AM,43.5,41.5,93,29.76,-9999.0,South,16.1,-,N/A,,Unknown,180,2012-12-06 07:00:00
4:30 AM,44.4,42.4,93,29.74,-9999.0,South,16.1,-,N/A,,Unknown,180,2012-12-06 08:00:00
5:30 AM,45,43,92,29.71,,South,12.7,,,,,170,2012-12-06 09:00:00
5:30 AM,45.3,43.3,93,29.71,-9999.0,South,12.7,21.9,N/A,,Unknown,170,2012-12-06 09:00:00
6:30 AM,46.9,44.2,90,29.68,-9999.0,SSE,16.1,23.0,N/A,,Unknown,160,2012-12-06 10:00:00
7:30 AM,45.1,43.0,92,29.65,-9999.0,SSE,21.9,29.9,N/A,,Unknown,150,2012-12-06 11:00:00
8:30 AM,47,44,87,29.62,,SSE,21.9,,,,,150,2012-12-06 12:00:00
8:30 AM,46.9,44.4,91,29.62,-9999.0,SSE,21.9,31.1,N/A,,Unknown,150,2012-12-06 12:00:00
9:30 AM,48.2,45.3,90,29.60,-9999.0,SSE,24.2,34.5,N/A,,Unknown,160,2012-12-06 13:00:00
10:30 AM,48.9,46.2,90,29.58,-9999.0,SSE,19.6,28.8,N/A,,Unknown,160,2012-12-06 14:00:00
11:30 AM,45,43,90,29.58,,SSW,16.1,,,,,200,2012-12-06 15:00:00
11:30 AM,44.6,43.0,94,29.58,-9999.0,SSW,16.1,-,0.07,,Unknown,200,2012-12-06 15:00:00
12:30 PM,44.4,43.2,95,29.55,-9999.0,SSW,9.2,-,0.12,,Unknown,200,2012-12-06 16:00:00
1:30 PM,46.6,45.1,95,29.51,-9999.0,SSE,5.8,-,0.03,,Unknown,160,2012-12-06 17:00:00
2:30 PM,45,43,91,29.51,,SSW,4.6,,,,,200,2012-12-06 18:00:00
2:30 PM,45.0,43.2,93,29.51,-9999.0,SSW,4.6,-,0.09,,Unknown,200,2012-12-06 18:00:00
3:30 PM,44.1,43.0,96,29.51,-9999.0,West,12.7,-,0.09,,Unknown,270,2012-12-06 19:00:00
4:30 PM,44.1,42.8,95,29.51,-9999.0,NW,5.8,-,0.11,,Unknown,310,2012-12-06 20:00:00
5:30 PM,43,42,96,29.50,,South,2.3,,,,,170,2012-12-06 21:00:00
5:30 PM,43.3,42.3,96,29.50,-9999.0,South,2.3,-,0.03,,Unknown,170,2012-12-06 21:00:00
6:30 PM,43.0,41.9,96,29.51,-9999.0,SSW,1.2,-,N/A,,Unknown,210,2012-12-06 22:00:00
7:30 PM,42.8,41.7,96,29.51,-9999.0,West,6.9,-,0.03,,Unknown,270,2012-12-06 23:00:00
8:30 PM,38,37,93,,,North,23.0,,,,,350,2012-12-07 00:00:00
9:30 PM,36.5,35.1,95,29.56,-9999.0,North,20.7,27.6,N/A,,Unknown,360,2012-12-07 01:00:00
10:30 PM,35.4,34.9,98,29.57,-9999.0,North,25.3,-,0.06,,Unknown,360,2012-12-07 02:00:00
11:30 PM,35.8,35.1,97,29.58,-9999.0,North,26.5,34.5,N/A,,Unknown,360,2012-12-07 03:00:00